• In Uzbekistan
  • List of Countries
  • For 7 days
  • Water Temperature
  • Satellite Maps
  • Weather Map
  • Weather Widgets
  • user-avatar
    Login

    Hourly Weather Ngozi

    Today, 20 June, Thursday

    Time Temperature Precipitation Wind Pressure Humidity
    00:00 +15°C° 0 mm 1 mps 619 mmHg 87%
    01:00 +14°C° 0 mm 1 mps 619 mmHg 88%
    02:00 +14°C° 0 mm 1 mps 618 mmHg 88%
    03:00 +14°C° 0 mm 1 mps 618 mmHg 88%
    04:00 +14°C° 0 mm 1 mps 618 mmHg 89%
    05:00 +13°C° 0 mm 1 mps 619 mmHg 89%
    06:00 +14°C° 0 mm 0 mps 619 mmHg 83%
    07:00 +16°C° 0 mm 0 mps 620 mmHg 76%
    08:00 +18°C° 0 mm 0 mps 621 mmHg 70%
    09:00 +21°C° 0 mm 1 mps 622 mmHg 64%
    10:00 +23°C° 0 mm 2 mps 622 mmHg 58%
    11:00 +24°C° 0 mm 3 mps 623 mmHg 52%
    12:00 +25°C° 0 mm 2 mps 622 mmHg 52%
    13:00 +25°C° 0 mm 2 mps 621 mmHg 52%
    14:00 +25°C° 0 mm 2 mps 620 mmHg 51%
    15:00 +24°C° 0.1 mm 2 mps 620 mmHg 56%
    16:00 +24°C° 0.1 mm 2 mps 619 mmHg 61%
    17:00 +23°C° 0.1 mm 1 mps 619 mmHg 66%
    18:00 +21°C° 0 mm 1 mps 619 mmHg 71%
    19:00 +19°C° 0 mm 1 mps 619 mmHg 77%
    20:00 +16°C° 0 mm 1 mps 619 mmHg 82%
    21:00 +16°C° 0 mm 1 mps 619 mmHg 84%
    22:00 +15°C° 0 mm 1 mps 619 mmHg 85%
    23:00 +15°C° 0 mm 1 mps 619 mmHg 87%

    Tomorrow, 21 June, Friday

    Time Temperature Precipitation Wind Pressure Humidity
    00:00 +15°C° 0 mm 1 mps 619 mmHg 87%
    01:00 +14°C° 0 mm 1 mps 619 mmHg 88%
    02:00 +14°C° 0 mm 1 mps 618 mmHg 89%
    03:00 +14°C° 0 mm 1 mps 618 mmHg 89%
    04:00 +13°C° 0 mm 0 mps 618 mmHg 90%
    05:00 +13°C° 0 mm 0 mps 618 mmHg 91%
    06:00 +15°C° 0 mm 0 mps 619 mmHg 84%
    07:00 +16°C° 0 mm 0 mps 620 mmHg 78%
    08:00 +18°C° 0 mm 0 mps 621 mmHg 71%
    09:00 +20°C° 0 mm 0 mps 622 mmHg 64%
    10:00 +24°C° 0 mm 1 mps 622 mmHg 56%
    11:00 +26°C° 0 mm 1 mps 623 mmHg 49%
    12:00 +26°C° 0.1 mm 1 mps 622 mmHg 52%
    13:00 +25°C° 0.1 mm 2 mps 621 mmHg 55%
    14:00 +24°C° 0.1 mm 2 mps 620 mmHg 58%
    15:00 +23°C° 0.5 mm 2 mps 619 mmHg 66%
    16:00 +21°C° 0.5 mm 2 mps 619 mmHg 74%
    17:00 +20°C° 0.5 mm 2 mps 618 mmHg 82%
    18:00 +20°C° 0.3 mm 1 mps 618 mmHg 85%
    19:00 +19°C° 0.3 mm 1 mps 619 mmHg 88%
    20:00 +18°C° 0.3 mm 1 mps 619 mmHg 91%
    21:00 +18°C° 0.1 mm 1 mps 619 mmHg 91%
    22:00 +18°C° 0.1 mm 1 mps 619 mmHg 91%
    23:00 +18°C° 0.1 mm 1 mps 619 mmHg 92%

    Day after tomorrow, 22 June, Saturday

    Time Temperature Precipitation Wind Pressure Humidity
    00:00 +16°C° 0.2 mm 1 mps 619 mmHg 92%
    01:00 +16°C° 0.2 mm 1 mps 619 mmHg 92%
    02:00 +16°C° 0.2 mm 1 mps 618 mmHg 92%
    03:00 +15°C° 0.1 mm 0 mps 618 mmHg 92%
    04:00 +15°C° 0.1 mm 0 mps 619 mmHg 91%
    05:00 +15°C° 0.1 mm 0 mps 619 mmHg 91%
    06:00 +15°C° 0.1 mm 0 mps 619 mmHg 91%
    07:00 +15°C° 0.1 mm 0 mps 620 mmHg 90%
    08:00 +16°C° 0.1 mm 0 mps 620 mmHg 90%
    09:00 +19°C° 0.2 mm 1 mps 620 mmHg 86%
    10:00 +20°C° 0.2 mm 1 mps 620 mmHg 83%
    11:00 +21°C° 0.2 mm 1 mps 620 mmHg 80%
    12:00 +21°C° 0.3 mm 1 mps 620 mmHg 77%
    13:00 +20°C° 0.3 mm 0 mps 619 mmHg 73%
    14:00 +21°C° 0.3 mm 0 mps 619 mmHg 70%
    15:00 +20°C° 0.3 mm 0 mps 619 mmHg 71%
    16:00 +20°C° 0.3 mm 0 mps 618 mmHg 73%
    17:00 +20°C° 0.3 mm 0 mps 618 mmHg 75%
    18:00 +19°C° 0.1 mm 0 mps 618 mmHg 77%
    19:00 +20°C° 0.1 mm 1 mps 619 mmHg 79%
    20:00 +19°C° 0.1 mm 1 mps 619 mmHg 82%
    21:00 +18°C° 0 mm 1 mps 619 mmHg 84%
    22:00 +18°C° 0 mm 1 mps 619 mmHg 85%
    23:00 +16°C° 0 mm 1 mps 619 mmHg 87%

    23 June, Sunday

    Time Temperature Precipitation Wind Pressure Humidity
    00:00 +16°C° 0 mm 1 mps 618 mmHg 88%
    01:00 +15°C° 0 mm 0 mps 618 mmHg 89%
    02:00 +14°C° 0 mm 0 mps 617 mmHg 90%
    03:00 +14°C° 0 mm 0 mps 617 mmHg 90%
    04:00 +15°C° 0 mm 1 mps 617 mmHg 90%
    05:00 +15°C° 0 mm 1 mps 617 mmHg 91%
    06:00 +14°C° 0 mm 0 mps 618 mmHg 88%
    07:00 +15°C° 0 mm 0 mps 619 mmHg 86%
    08:00 +16°C° 0 mm 0 mps 620 mmHg 83%
    09:00 +17°C° 0.2 mm 0 mps 620 mmHg 82%
    10:00 +18°C° 0.2 mm 0 mps 619 mmHg 81%
    11:00 +20°C° 0.2 mm 1 mps 619 mmHg 79%
    12:00 +21°C° 0.3 mm 1 mps 619 mmHg 76%
    13:00 +22°C° 0.3 mm 1 mps 619 mmHg 73%
    14:00 +20°C° 0.3 mm 0 mps 618 mmHg 70%
    15:00 +20°C° 0.2 mm 0 mps 618 mmHg 72%
    16:00 +19°C° 0.2 mm 0 mps 618 mmHg 75%
    17:00 +19°C° 0.2 mm 0 mps 618 mmHg 78%
    18:00 +18°C° 0 mm 0 mps 618 mmHg 79%
    19:00 +17°C° 0 mm 0 mps 618 mmHg 81%
    20:00 +16°C° 0 mm 0 mps 618 mmHg 82%
    21:00 +15°C° 0 mm 0 mps 618 mmHg 83%
    22:00 +16°C° 0 mm 1 mps 618 mmHg 84%
    23:00 +15°C° 0 mm 1 mps 618 mmHg 85%

    24 June, Monday

    Time Temperature Precipitation Wind Pressure Humidity
    00:00 +15°C° 0 mm 1 mps 618 mmHg 86%
    01:00 +15°C° 0 mm 1 mps 617 mmHg 86%
    02:00 +14°C° 0 mm 1 mps 617 mmHg 87%
    03:00 +14°C° 0 mm 1 mps 617 mmHg 88%
    04:00 +14°C° 0 mm 1 mps 617 mmHg 90%
    05:00 +12°C° 0 mm 0 mps 617 mmHg 91%
    06:00 +14°C° 0 mm 0 mps 618 mmHg 85%
    07:00 +16°C° 0 mm 0 mps 619 mmHg 80%
    08:00 +18°C° 0 mm 0 mps 620 mmHg 75%
    09:00 +20°C° 0.2 mm 0 mps 620 mmHg 69%
    10:00 +22°C° 0.2 mm 0 mps 621 mmHg 63%
    11:00 +24°C° 0.2 mm 0 mps 621 mmHg 57%
    12:00 +23°C° 0.9 mm 0 mps 620 mmHg 61%
    13:00 +25°C° 0.9 mm 1 mps 620 mmHg 64%
    14:00 +24°C° 0.9 mm 1 mps 619 mmHg 67%
    15:00 +23°C° 0.8 mm 1 mps 618 mmHg 72%
    16:00 +20°C° 0.8 mm 0 mps 618 mmHg 77%
    17:00 +19°C° 0.8 mm 0 mps 617 mmHg 82%
    18:00 +18°C° 0 mm 0 mps 617 mmHg 83%
    19:00 +17°C° 0 mm 0 mps 618 mmHg 83%
    20:00 +16°C° 0 mm 0 mps 618 mmHg 84%
    21:00 +16°C° 0 mm 0 mps 618 mmHg 84%
    22:00 +18°C° 0 mm 1 mps 618 mmHg 85%
    23:00 +18°C° 0 mm 1 mps 618 mmHg 85%

    25 June, Tuesday

    Time Temperature Precipitation Wind Pressure Humidity
    00:00 +16°C° 0 mm 1 mps 618 mmHg 85%
    01:00 +16°C° 0 mm 1 mps 618 mmHg 85%
    02:00 +16°C° 0 mm 1 mps 618 mmHg 85%
    03:00 +16°C° 0 mm 1 mps 618 mmHg 85%
    04:00 +16°C° 0 mm 1 mps 618 mmHg 86%
    05:00 +16°C° 0 mm 1 mps 618 mmHg 86%
    06:00 +15°C° 0 mm 0 mps 619 mmHg 84%
    07:00 +16°C° 0 mm 0 mps 619 mmHg 82%
    08:00 +17°C° 0 mm 0 mps 620 mmHg 80%
    09:00 +21°C° 0 mm 1 mps 620 mmHg 70%
    10:00 +22°C° 0 mm 1 mps 621 mmHg 60%
    11:00 +24°C° 0 mm 1 mps 621 mmHg 50%
    12:00 +25°C° 0.1 mm 1 mps 621 mmHg 50%
    13:00 +25°C° 0.1 mm 1 mps 620 mmHg 49%
    14:00 +25°C° 0.1 mm 1 mps 620 mmHg 49%
    15:00 +24°C° 0 mm 1 mps 619 mmHg 56%
    16:00 +22°C° 0 mm 1 mps 619 mmHg 63%
    17:00 +21°C° 0 mm 1 mps 618 mmHg 70%
    18:00 +20°C° 0 mm 1 mps 618 mmHg 71%
    19:00 +19°C° 0 mm 1 mps 618 mmHg 73%
    20:00 +18°C° 0 mm 1 mps 619 mmHg 74%
    21:00 +18°C° 0 mm 1 mps 619 mmHg 75%
    22:00 +16°C° 0 mm 1 mps 619 mmHg 76%
    23:00 +16°C° 0 mm 1 mps 619 mmHg 77%
    Show more